Japanese version Home page |
Updated on March 5, 2011 |
Profile
|
Orbital ElementsEpoch 2003 Jan. 1.0 TT = JDT 2452640.5 T 2003 Jan. 12.16293 TT MPC q 1.5196285 (2000.0) P Q n 0.12294456 Peri. 44.13365 -0.17651391 -0.96383185 a 4.0055593 Node 57.01208 +0.82423928 -0.25562376 e 0.6206202 Incl. 13.77179 +0.53802644 +0.07539669 P 8.02 From 390 observations 2002 Nov. 5-2011 Jan. 3, mean residual 0".4.
|
Magnitudes Graphm1 = 14.0 + 5 log d + 22.0 log r(t - 30)
|
The orbital elements are published on M.P.E.C. 2011-A08.
|